Weather reports worldwide

Advertisment
Stonyhurst, United Kingdom (99060): temperature & dewpoint: 14.08.2019 05:00:00 - 20.08.2019 05:00:00 (BST)Stonyhurst, United Kingdom (99060): precipitation: 14.08.2019 05:00:00 - 20.08.2019 05:00:00 (BST)
Date & Time tt [°C] td [°C] rr [mm]
20.08.2019 05:00:00 - - -
20.08.2019 04:00:00 12,1 10,6 0,2
20.08.2019 03:00:00 12,0 10,2 0,0
20.08.2019 02:00:00 12,5 10,8 0,0
20.08.2019 01:00:00 13,0 10,7 0,0
20.08.2019 00:00:00 13,2 10,3 0,0
19.08.2019 23:00:00 13,4 11,0 0,0
19.08.2019 22:00:00 13,5 10,9 0,0
19.08.2019 21:00:00 13,4 9,7 0,0
19.08.2019 20:00:00 14,6 10,1 0,0
19.08.2019 19:00:00 15,9 10,2 0,0
19.08.2019 18:00:00 15,7 9,9 0,0
19.08.2019 17:00:00 16,2 9,1 0,0
19.08.2019 16:00:00 15,0 9,3 0,0
19.08.2019 15:00:00 15,9 9,4 0,0
19.08.2019 14:00:00 15,6 10,5 0,0
19.08.2019 13:00:00 14,3 11,3 0,4
19.08.2019 12:00:00 13,3 12,0 2,4
19.08.2019 11:00:00 14,6 11,4 0,0
19.08.2019 10:00:00 15,1 10,7 0,0
19.08.2019 09:00:00 14,6 11,0 0,0
19.08.2019 08:00:00 13,6 11,6 0,0
19.08.2019 07:00:00 12,7 11,4 0,0
19.08.2019 06:00:00 12,7 11,1 0,0
19.08.2019 05:00:00 12,8 11,6 0,2
19.08.2019 04:00:00 13,2 11,6 0,0
19.08.2019 03:00:00 13,9 12,1 0,0
19.08.2019 02:00:00 14,3 12,8 0,0
19.08.2019 01:00:00 14,1 13,1 0,0
19.08.2019 00:00:00 13,7 12,8 0,0
18.08.2019 23:00:00 14,1 13,2 0,0
18.08.2019 22:00:00 13,9 13,1 0,0
18.08.2019 21:00:00 13,5 12,6 1,4
18.08.2019 20:00:00 14,3 12,0 0,0
18.08.2019 19:00:00 14,4 11,7 0,0
18.08.2019 18:00:00 16,5 10,8 0,0
18.08.2019 17:00:00 16,1 11,3 0,0
18.08.2019 16:00:00 16,4 10,4 0,0
18.08.2019 15:00:00 17,1 10,1 0,0
18.08.2019 14:00:00 16,9 9,7 0,0
18.08.2019 13:00:00 17,3 10,6 0,0
18.08.2019 12:00:00 16,5 9,0 0,0
18.08.2019 11:00:00 16,1 10,0 0,0
18.08.2019 10:00:00 15,2 10,0 0,0
18.08.2019 09:00:00 14,5 10,7 0,0
18.08.2019 08:00:00 13,4 10,8 0,0
18.08.2019 07:00:00 12,4 10,4 0,0
18.08.2019 06:00:00 12,4 10,4 0,0
18.08.2019 05:00:00 12,3 10,2 0,0
18.08.2019 04:00:00 11,6 9,9 0,0
18.08.2019 03:00:00 11,7 9,7 0,0
18.08.2019 02:00:00 11,9 9,6 0,0
18.08.2019 01:00:00 12,2 9,6 0,0
18.08.2019 00:00:00 12,8 9,6 0,0
17.08.2019 23:00:00 13,0 9,4 0,0
17.08.2019 22:00:00 13,9 9,0 0,0
17.08.2019 21:00:00 14,6 9,6 0,0
17.08.2019 20:00:00 15,4 9,6 0,0
17.08.2019 19:00:00 16,4 9,4 0,0
17.08.2019 18:00:00 17,8 9,4 0,0
17.08.2019 17:00:00 17,5 10,3 0,0
17.08.2019 16:00:00 17,8 10,2 0,0
17.08.2019 15:00:00 18,0 10,6 0,0
17.08.2019 14:00:00 17,4 10,2 0,0
17.08.2019 13:00:00 16,8 10,1 0,0
17.08.2019 12:00:00 16,4 10,7 0,0
17.08.2019 11:00:00 15,3 10,2 0,0
17.08.2019 10:00:00 15,2 12,0 0,0
17.08.2019 09:00:00 14,8 13,3 0,0
17.08.2019 08:00:00 14,2 13,4 0,4
17.08.2019 07:00:00 13,9 13,6 2,2
17.08.2019 06:00:00 13,8 13,1 1,0
17.08.2019 05:00:00 14,1 13,2 0,0
17.08.2019 04:00:00 14,4 13,4 0,0
17.08.2019 03:00:00 14,2 13,8 0,0
17.08.2019 02:00:00 14,0 13,7 1,0
17.08.2019 01:00:00 14,5 12,8 0,0
17.08.2019 00:00:00 15,3 13,7 0,0
16.08.2019 23:00:00 16,4 15,6 0,0
16.08.2019 22:00:00 16,2 15,6 0,0
16.08.2019 21:00:00 16,5 15,8 0,0
16.08.2019 20:00:00 16,4 15,9 0,4
16.08.2019 19:00:00 16,4 15,5 0,2
16.08.2019 18:00:00 16,6 15,9 1,2
16.08.2019 17:00:00 15,5 14,9 2,4
16.08.2019 16:00:00 15,3 14,6 2,4
16.08.2019 15:00:00 15,1 14,2 1,4
16.08.2019 14:00:00 14,7 13,8 2,0
16.08.2019 13:00:00 14,9 13,6 0,2
16.08.2019 12:00:00 14,7 13,5 0,2
16.08.2019 11:00:00 14,5 13,4 0,8
16.08.2019 10:00:00 14,3 13,3 1,2
16.08.2019 09:00:00 14,0 13,3 1,0
16.08.2019 08:00:00 14,2 12,6 0,2
16.08.2019 07:00:00 13,7 12,4 0,0
16.08.2019 06:00:00 13,1 11,9 0,0
16.08.2019 05:00:00 13,1 11,7 0,0
16.08.2019 04:00:00 13,5 11,9 0,0
16.08.2019 03:00:00 13,1 11,6 0,0
16.08.2019 02:00:00 12,3 10,8 0,0
16.08.2019 01:00:00 12,0 10,6 0,0
16.08.2019 00:00:00 11,2 10,2 0,0
15.08.2019 23:00:00 11,0 9,8 0,0
15.08.2019 22:00:00 11,5 9,5 0,0
15.08.2019 21:00:00 12,9 9,4 0,0
15.08.2019 20:00:00 14,7 8,9 0,0
15.08.2019 19:00:00 15,9 9,2 0,0
15.08.2019 18:00:00 16,3 11,0 0,0
15.08.2019 17:00:00 15,0 10,3 0,0
15.08.2019 16:00:00 15,0 9,2 0,0
15.08.2019 15:00:00 16,1 9,1 0,0
15.08.2019 14:00:00 15,4 9,7 0,0
15.08.2019 13:00:00 15,3 8,6 0,0
15.08.2019 12:00:00 15,5 10,4 0,0
15.08.2019 11:00:00 15,0 10,9 0,0
15.08.2019 10:00:00 14,4 11,6 0,0
15.08.2019 09:00:00 13,9 12,0 0,0
15.08.2019 08:00:00 13,5 12,9 1,6
15.08.2019 07:00:00 14,0 13,6 1,0
15.08.2019 06:00:00 14,1 13,6 0,8
15.08.2019 05:00:00 14,4 14,0 1,0
15.08.2019 04:00:00 14,6 14,1 0,8
15.08.2019 03:00:00 15,1 13,9 0,0
15.08.2019 02:00:00 15,0 14,5 0,0
15.08.2019 01:00:00 14,8 14,4 0,0
15.08.2019 00:00:00 15,6 15,4 0,0
14.08.2019 23:00:00 16,0 15,9 1,2
14.08.2019 22:00:00 16,2 16,1 0,4
14.08.2019 21:00:00 15,9 15,7 0,0
14.08.2019 20:00:00 15,7 15,5 0,0
14.08.2019 19:00:00 15,3 15,1 0,4
14.08.2019 18:00:00 15,3 15,0 1,0
14.08.2019 17:00:00 15,4 14,9 3,0
14.08.2019 16:00:00 15,2 14,0 0,0
14.08.2019 15:00:00 15,1 13,9 0,0
14.08.2019 14:00:00 15,0 14,5 2,6
14.08.2019 13:00:00 14,2 13,5 2,0
14.08.2019 12:00:00 14,6 13,3 0,0
14.08.2019 11:00:00 14,3 12,7 0,0
14.08.2019 10:00:00 13,5 12,7 0,2
14.08.2019 09:00:00 13,4 12,9 0,2
14.08.2019 08:00:00 12,4 12,1 0,0
14.08.2019 07:00:00 11,5 11,3 0,6
14.08.2019 06:00:00 11,0 10,7 0,4
14.08.2019 05:00:00 10,4 9,7 1,0

tt = temperature
td = dewpoint
rr = precipitation

Next stations